| time (UTC) | temp F | wind direction | speed MPH | gust MPH | rain 1hr in | rain 24hr in | rain mn in | humidity % | barometer mb |
| 20260507100011 | 52 | 258 | 16.0 | 18.0 | 0.00 | 0.00 | 0.00 | 83 | |
| 20260507095510 | 52 | 245 | 13.0 | 16.0 | 0.00 | 0.00 | 0.00 | 84 | |
| 20260507095011 | 52 | 240 | 16.0 | 18.0 | 0.00 | 0.00 | 0.00 | 84 | |
| 20260507094505 | 52 | 233 | 18.0 | 20.0 | 0.00 | 0.00 | 0.00 | 84 | |
| 20260507094011 | 52 | 245 | 20.0 | 20.0 | 0.00 | 0.00 | 0.00 | 84 | |
| 20260507093510 | 52 | 223 | 20.0 | 22.0 | 0.00 | 0.00 | 0.00 | 83 | |
| 20260507093011 | 54 | 209 | 20.0 | 25.0 | 0.00 | 0.00 | 0.00 | 84 | |
| 20260507092511 | 54 | 197 | 9.0 | 11.0 | 0.00 | 0.00 | 0.00 | 86 | |
| 20260507092013 | 54 | 181 | 11.0 | 16.0 | 0.00 | 0.00 | 0.00 | 86 | |
| 20260507091510 | 54 | 203 | 16.0 | 20.0 | 0.00 | 0.00 | 0.00 | 87 | |
| 20260507091010 | 54 | 203 | 7.0 | 9.0 | 0.00 | 0.00 | 0.00 | 89 | |
| 20260507090511 | 52 | 249 | 13.0 | 16.0 | 0.00 | 0.00 | 0.00 | 89 | |
| 20260507090010 | 52 | 236 | 11.0 | 13.0 | 0.00 | 0.00 | 0.00 | 90 | |
| 20260507085510 | 52 | 244 | 13.0 | 16.0 | 0.00 | 0.00 | 0.00 | 90 | |
| 20260507085010 | 52 | 216 | 16.0 | 18.0 | 0.00 | 0.00 | 0.00 | 90 | |
| 20260507084510 | 52 | 200 | 11.0 | 16.0 | 0.00 | 0.00 | 0.00 | 91 | |
| 20260507084011 | 52 | 183 | 11.0 | 13.0 | 0.00 | 0.00 | 0.00 | 90 | |
| 20260507083511 | 52 | 174 | 11.0 | 13.0 | 0.00 | 0.00 | 0.00 | 91 | |
| 20260507083010 | 52 | 208 | 13.0 | 18.0 | 0.00 | 0.00 | 0.00 | 91 | |
| 20260507082511 | 52 | 224 | 13.0 | 13.0 | 0.00 | 0.00 | 0.00 | 91 | |
| 20260507082012 | 52 | 231 | 13.0 | 18.0 | 0.00 | 0.00 | 0.00 | 92 | |
| 20260507081511 | 50 | 258 | 16.0 | 20.0 | 0.00 | 0.00 | 0.00 | 92 | |
| 20260507081011 | 50 | 259 | 16.0 | 18.0 | 0.00 | 0.00 | 0.00 | 92 | |
| 20260507080509 | 50 | 245 | 18.0 | 20.0 | 0.00 | 0.00 | 0.00 | 93 | |
| 20260507080011 | 48 | 241 | 16.0 | 18.0 | 0.00 | 0.00 | 0.00 | 93 | |
| 20260507075510 | 48 | 233 | 16.0 | 18.0 | 0.00 | 0.00 | 0.00 | 92 | |
| 20260507075010 | 48 | 232 | 16.0 | 18.0 | 0.00 | 0.00 | 0.00 | 92 | |
| 20260507074510 | 48 | 236 | 18.0 | 18.0 | 0.00 | 0.00 | 0.00 | 92 | |
| 20260507074011 | 48 | 234 | 16.0 | 18.0 | 0.00 | 0.00 | 0.00 | 93 | |
| 20260507073510 | 48 | 236 | 13.0 | 13.0 | 0.00 | 0.00 | 0.00 | 92 | |
| 20260507073010 | 50 | 233 | 18.0 | 18.0 | 0.00 | 0.00 | 0.00 | 92 | |
| 20260507072510 | 50 | 239 | 16.0 | 20.0 | 0.00 | 0.00 | 0.00 | 93 | |
| 20260507072013 | 48 | 237 | 16.0 | 18.0 | 0.00 | 0.00 | 0.00 | 93 | |
| 20260507071503 | 48 | 218 | 13.0 | 16.0 | 0.00 | 0.00 | 0.00 | 93 | |
| 20260507071009 | 48 | 205 | 18.0 | 18.0 | 0.00 | 0.00 | 0.00 | 93 | |
| 20260507070517 | 50 | 215 | 13.0 | 16.0 | 0.00 | 0.00 | 0.00 | 93 | |
| 20260507070012 | 48 | 224 | 18.0 | 18.0 | 0.00 | 0.00 | 0.00 | 93 | |
| 20260507065511 | 48 | 231 | 18.0 | 20.0 | 0.00 | 0.00 | 0.00 | 93 | |
| 20260507065011 | 48 | 242 | 18.0 | 20.0 | 0.00 | 0.00 | 0.00 | 93 | |
| 20260507064518 | 48 | 249 | 20.0 | 22.0 | 0.00 | 0.00 | 0.00 | 93 | |
| 20260507064010 | 48 | 241 | 18.0 | 20.0 | 0.00 | 0.00 | 0.00 | 93 | |
| 20260507063515 | 48 | 239 | 18.0 | 20.0 | 0.00 | 0.00 | 0.00 | 93 | |
| 20260507063010 | 48 | 239 | 20.0 | 22.0 | 0.00 | 0.00 | 0.00 | 93 | |
| 20260507062510 | 50 | 245 | 20.0 | 25.0 | 0.00 | 0.00 | 0.00 | 93 | |
| 20260507062012 | 50 | 233 | 13.0 | 16.0 | 0.00 | 0.00 | 0.00 | 93 | |
| 20260507061518 | 50 | 229 | 13.0 | 18.0 | 0.00 | 0.00 | 0.00 | 93 | |
| 20260507061011 | 50 | 231 | 13.0 | 16.0 | 0.00 | 0.00 | 0.00 | 93 | |
| 20260507060510 | 50 | 232 | 13.0 | 16.0 | 0.00 | 0.00 | 0.00 | 93 | |
| 20260507060011 | 50 | 229 | 13.0 | 16.0 | 0.00 | 0.00 | 0.00 | 93 | |
| 20260507055515 | 50 | 237 | 13.0 | 16.0 | 0.00 | 0.00 | 0.00 | 93 | |
| 20260507055011 | 50 | 244 | 13.0 | 16.0 | 0.00 | 0.00 | 0.00 | 93 | |
| 20260507054510 | 48 | 245 | 16.0 | 16.0 | 0.00 | 0.00 | 0.00 | 93 | |
| 20260507054010 | 48 | 245 | 13.0 | 16.0 | 0.00 | 0.00 | 0.00 | 93 | |
| 20260507053511 | 48 | 248 | 11.0 | 13.0 | 0.00 | 0.00 | 0.00 | 93 | |
| 20260507053010 | 48 | 250 | 11.0 | 11.0 | 0.00 | 0.00 | 0.00 | 92 | |
| 20260507052511 | 48 | 244 | 11.0 | 13.0 | 0.00 | 0.00 | 0.00 | 92 | |
| 20260507052012 | 48 | 240 | 11.0 | 11.0 | 0.00 | 0.00 | 0.00 | 92 | |
| 20260507051511 | 48 | 253 | 9.0 | 11.0 | 0.00 | 0.00 | 0.00 | 92 | |
| 20260507051010 | 48 | 249 | 11.0 | 13.0 | 0.00 | 0.00 | 0.00 | 92 | |
| 20260507050510 | 48 | 244 | 11.0 | 13.0 | 0.00 | 0.00 | 0.00 | 92 | |
| 20260507050011 | 48 | 252 | 9.0 | 11.0 | 0.00 | 0.00 | 0.00 | 92 | |
| 20260507045510 | 48 | 235 | 11.0 | 13.0 | 0.00 | 0.00 | 0.00 | 92 | |
| 20260507045011 | 48 | 222 | 13.0 | 16.0 | 0.00 | 0.00 | 0.00 | 92 | |
| 20260507044518 | 50 | 226 | 13.0 | 16.0 | 0.00 | 0.00 | 0.00 | 92 | |
| 20260507044010 | 48 | 219 | 18.0 | 18.0 | 0.00 | 0.00 | 0.00 | 92 | |
| 20260507043511 | 48 | 219 | 16.0 | 18.0 | 0.00 | 0.00 | 0.00 | 92 | |
| 20260507043010 | 48 | 212 | 18.0 | 18.0 | 0.00 | 0.00 | 0.00 | 92 | |
| 20260507042510 | 48 | 206 | 18.0 | 18.0 | 0.00 | 0.00 | 0.00 | 91 | |
| 20260507042010 | 48 | 201 | 16.0 | 20.0 | 0.00 | 0.00 | 0.00 | 92 | |
| 20260507041516 | 48 | 199 | 13.0 | 18.0 | 0.00 | 0.00 | 0.00 | 91 | |
| 20260507041010 | 48 | 200 | 11.0 | 16.0 | 0.00 | 0.00 | 0.00 | 91 | |
| 20260507040511 | 48 | 196 | 11.0 | 13.0 | 0.00 | 0.00 | 0.00 | 91 | |
| 20260507040011 | 48 | 206 | 13.0 | 16.0 | 0.00 | 0.00 | 0.00 | 91 | |
| 20260507035510 | 48 | 203 | 13.0 | 16.0 | 0.00 | 0.00 | 0.00 | 91 | |
| 20260507035011 | 48 | 202 | 16.0 | 18.0 | 0.00 | 0.00 | 0.00 | 91 | |
| 20260507034510 | 48 | 201 | 16.0 | 18.0 | 0.00 | 0.00 | 0.00 | 90 | |
| 20260507034010 | 48 | 197 | 16.0 | 16.0 | 0.00 | 0.00 | 0.00 | 90 | |
| 20260507033511 | 48 | 192 | 11.0 | 16.0 | 0.00 | 0.00 | 0.00 | 90 | |
| 20260507033010 | 48 | 192 | 13.0 | 16.0 | 0.00 | 0.00 | 0.00 | 90 | |
| 20260507032510 | 50 | 204 | 18.0 | 20.0 | 0.00 | 0.00 | 0.00 | 90 | |
| 20260507032013 | 50 | 197 | 16.0 | 20.0 | 0.00 | 0.00 | 0.00 | 90 | |
| 20260507031510 | 50 | 207 | 18.0 | 20.0 | 0.00 | 0.00 | 0.00 | 91 | |
| 20260507031008 | 50 | 216 | 13.0 | 16.0 | 0.00 | 0.00 | 0.00 | 91 | |
| 20260507030510 | 50 | 214 | 13.0 | 16.0 | 0.00 | 0.00 | 0.00 | 91 | |
| 20260507030010 | 48 | 210 | 16.0 | 16.0 | 0.00 | 0.00 | 0.00 | 90 | |
| 20260507025510 | 48 | 204 | 16.0 | 18.0 | 0.00 | 0.00 | 0.00 | 90 | |
| 20260507025010 | 48 | 212 | 13.0 | 16.0 | 0.00 | 0.00 | 0.00 | 91 | |
| 20260507024511 | 50 | 216 | 13.0 | 16.0 | 0.00 | 0.00 | 0.00 | 90 | |
| 20260507024010 | 50 | 229 | 16.0 | 16.0 | 0.00 | 0.00 | 0.00 | 90 | |
| 20260507023510 | 50 | 233 | 16.0 | 16.0 | 0.00 | 0.00 | 0.00 | 90 | |
| 20260507023011 | 50 | 238 | 16.0 | 16.0 | 0.00 | 0.00 | 0.00 | 91 | |
| 20260507022510 | 50 | 242 | 16.0 | 16.0 | 0.00 | 0.00 | 0.00 | 91 | |
| 20260507022011 | 50 | 239 | 16.0 | 18.0 | 0.00 | 0.00 | 0.00 | 91 | |
| 20260507021511 | 50 | 227 | 16.0 | 16.0 | 0.00 | 0.00 | 0.00 | 91 | |
| 20260507021010 | 50 | 227 | 13.0 | 16.0 | 0.00 | 0.00 | 0.00 | 91 | |
| 20260507020518 | 50 | 220 | 16.0 | 16.0 | 0.00 | 0.00 | 0.00 | 91 | |
| 20260507020010 | 50 | 226 | 13.0 | 16.0 | 0.00 | 0.00 | 0.00 | 91 | |
| 20260507015510 | 50 | 230 | 13.0 | 16.0 | 0.00 | 0.00 | 0.00 | 91 | |
| 20260507015010 | 50 | 220 | 13.0 | 13.0 | 0.00 | 0.00 | 0.00 | 91 | |
| 20260507014510 | 50 | 223 | 13.0 | 16.0 | 0.00 | 0.00 | 0.00 | 91 | |
| 20260507014011 | 50 | 216 | 13.0 | 13.0 | 0.00 | 0.00 | 0.00 | 91 | |
| 20260507013510 | 50 | 226 | 13.0 | 16.0 | 0.00 | 0.00 | 0.00 | 90 | |
| 20260507013012 | 50 | 232 | 13.0 | 16.0 | 0.00 | 0.00 | 0.00 | 90 | |
| 20260507012511 | 50 | 225 | 16.0 | 18.0 | 0.00 | 0.00 | 0.00 | 90 | |
| 20260507012004 | 50 | 228 | 16.0 | 18.0 | 0.00 | 0.00 | 0.00 | 90 | |
| 20260507011510 | 50 | 227 | 13.0 | 16.0 | 0.00 | 0.00 | 0.00 | 90 | |
| 20260507011011 | 50 | 231 | 13.0 | 13.0 | 0.00 | 0.00 | 0.00 | 90 | |
| 20260507010510 | 50 | 230 | 13.0 | 13.0 | 0.00 | 0.00 | 0.00 | 89 | |
| 20260507010011 | 50 | 223 | 11.0 | 13.0 | 0.00 | 0.00 | 0.00 | 90 | |
| 20260507005509 | 50 | 228 | 13.0 | 16.0 | 0.00 | 0.00 | 0.00 | 90 | |
| 20260507005010 | 50 | 236 | 16.0 | 16.0 | 0.00 | 0.00 | 0.00 | 90 | |
| 20260507004010 | 50 | 218 | 13.0 | 16.0 | 0.00 | 0.00 | 0.00 | 89 | |
| 20260507003510 | 50 | 210 | 16.0 | 18.0 | 0.00 | 0.00 | 0.00 | 88 | |
| 20260507003010 | 50 | 230 | 13.0 | 16.0 | 0.00 | 0.00 | 0.00 | 88 | |
| 20260507002511 | 52 | 264 | 16.0 | 16.0 | 0.00 | 0.00 | 0.00 | 89 | |
| 20260507002012 | 52 | 259 | 13.0 | 13.0 | 0.00 | 0.00 | 0.00 | 89 | |
| 20260507001511 | 52 | 256 | 13.0 | 13.0 | 0.00 | 0.00 | 0.00 | 89 | |
| 20260507001010 | 50 | 265 | 13.0 | 13.0 | 0.00 | 0.00 | 0.00 | 89 | |
| 20260507000511 | 50 | 254 | 11.0 | 13.0 | 0.00 | 0.00 | 0.00 | 89 | |
| 20260507000011 | 50 | 255 | 13.0 | 13.0 | 0.00 | 0.00 | 0.00 | 89 | |
| 20260506235511 | 50 | 248 | 13.0 | 16.0 | 0.00 | 0.00 | 0.00 | 89 | |
| 20260506235010 | 50 | 231 | 11.0 | 13.0 | 0.00 | 0.00 | 0.00 | 88 | |
| 20260506234510 | 50 | 213 | 11.0 | 11.0 | 0.00 | 0.00 | 0.00 | 88 | |
| 20260506234011 | 50 | 240 | 11.0 | 11.0 | 0.00 | 0.00 | 0.00 | 88 | |
| 20260506233510 | 50 | 242 | 13.0 | 13.0 | 0.00 | 0.00 | 0.00 | 88 | |
| 20260506233010 | 50 | 237 | 11.0 | 13.0 | 0.00 | 0.00 | 0.00 | 88 | |
| 20260506232514 | 50 | 226 | 11.0 | 13.0 | 0.00 | 0.00 | 0.00 | 88 | |
| 20260506232012 | 50 | 207 | 9.0 | 9.0 | 0.00 | 0.00 | 0.00 | 88 | |
| 20260506231510 | 50 | 209 | 11.0 | 13.0 | 0.00 | 0.00 | 0.00 | 88 | |
| 20260506231010 | 50 | 206 | 11.0 | 13.0 | 0.00 | 0.00 | 0.00 | 87 | |
| 20260506230511 | 50 | 205 | 11.0 | 16.0 | 0.00 | 0.00 | 0.00 | 88 | |
| 20260506230010 | 50 | 218 | 11.0 | 13.0 | 0.00 | 0.00 | 0.00 | 88 | |
| 20260506225510 | 50 | 216 | 11.0 | 16.0 | 0.00 | 0.00 | 0.00 | 88 | |
| 20260506225010 | 50 | 234 | 11.0 | 13.0 | 0.00 | 0.00 | 0.00 | 87 | |
| 20260506224510 | 50 | 254 | 13.0 | 13.0 | 0.00 | 0.00 | 0.00 | 87 | |
| 20260506224011 | 50 | 256 | 11.0 | 11.0 | 0.00 | 0.00 | 0.00 | 86 | |
| 20260506223511 | 50 | 262 | 16.0 | 16.0 | 0.00 | 0.00 | 0.00 | 86 | |
| 20260506223010 | 50 | 231 | 11.0 | 11.0 | 0.00 | 0.00 | 0.00 | 85 | |
| 20260506222513 | 50 | 230 | 11.0 | 11.0 | 0.00 | 0.00 | 0.00 | 85 | |
| 20260506222016 | 52 | 224 | 11.0 | 13.0 | 0.00 | 0.00 | 0.00 | 85 | |
| 20260506221510 | 52 | 207 | 13.0 | 13.0 | 0.00 | 0.00 | 0.00 | 85 | |
| 20260506221010 | 52 | 211 | 16.0 | 18.0 | 0.00 | 0.00 | 0.00 | 83 | |
| 20260506220511 | 52 | 203 | 11.0 | 11.0 | 0.00 | 0.00 | 0.00 | 84 | |
| 20260506220011 | 52 | 204 | 16.0 | 18.0 | 0.00 | 0.00 | 0.00 | 84 | |
| 20260506215510 | 52 | 204 | 20.0 | 20.0 | 0.00 | 0.00 | 0.00 | 85 | |
| 20260506215010 | 52 | 203 | 18.0 | 18.0 | 0.00 | 0.00 | 0.00 | 85 | |
| 20260506214510 | 52 | 207 | 16.0 | 18.0 | 0.00 | 0.00 | 0.00 | 86 | |
| 20260506214011 | 50 | 230 | 13.0 | 18.0 | 0.00 | 0.00 | 0.00 | 85 | |
| 20260506213510 | 50 | 229 | 16.0 | 18.0 | 0.00 | 0.00 | 0.00 | 84 | |
| 20260506213011 | 52 | 251 | 16.0 | 18.0 | 0.00 | 0.00 | 0.00 | 84 | |
| 20260506212510 | 52 | 225 | 13.0 | 18.0 | 0.00 | 0.00 | 0.00 | 84 | |
| 20260506212020 | 52 | 233 | 18.0 | 20.0 | 0.00 | 0.00 | 0.00 | 83 | |
| 20260506211511 | 52 | 233 | 18.0 | 20.0 | 0.00 | 0.00 | 0.00 | 82 | |
| 20260506211010 | 52 | 218 | 16.0 | 18.0 | 0.00 | 0.00 | 0.00 | 81 | |
| 20260506210510 | 54 | 219 | 16.0 | 16.0 | 0.00 | 0.00 | 0.00 | 78 | |
| 20260506210010 | 55 | 213 | 9.0 | 9.0 | 0.00 | 0.00 | 0.00 | 75 | |
| 20260506205510 | 55 | 201 | 4.0 | 7.0 | 0.00 | 0.00 | 0.00 | 74 | |
| 20260506204511 | 55 | 138 | 2.0 | 2.0 | 0.00 | 0.00 | 0.00 | 74 | |
| 20260506203510 | 55 | 138 | 0.0 | 2.0 | 0.00 | 0.00 | 0.00 | 73 | |
| 20260506203011 | 55 | 117 | 4.0 | 4.0 | 0.00 | 0.00 | 0.00 | 73 | |
| 20260506202503 | 55 | 117 | 4.0 | 4.0 | 0.00 | 0.00 | 0.00 | 74 | |
| 20260506202012 | 55 | 94 | 4.0 | 4.0 | 0.00 | 0.00 | 0.00 | 74 | |
| 20260506201517 | 55 | 112 | 4.0 | 7.0 | 0.00 | 0.00 | 0.00 | 75 | |
| 20260506201010 | 55 | 95 | 4.0 | 7.0 | 0.00 | 0.00 | 0.00 | 75 | |
| 20260506200511 | 55 | 104 | 7.0 | 7.0 | 0.00 | 0.00 | 0.00 | 74 | |
| 20260506200011 | 55 | 85 | 9.0 | 9.0 | 0.00 | 0.00 | 0.00 | 74 | |
| 20260506195509 | 55 | 101 | 7.0 | 7.0 | 0.00 | 0.00 | 0.00 | 74 | |
| 20260506195018 | 55 | 110 | 7.0 | 7.0 | 0.00 | 0.00 | 0.00 | 73 | |
| 20260506194510 | 55 | 118 | 9.0 | 9.0 | 0.00 | 0.00 | 0.00 | 73 | |
| 20260506194011 | 55 | 123 | 9.0 | 9.0 | 0.00 | 0.00 | 0.00 | 72 | |
| 20260506193511 | 55 | 129 | 11.0 | 13.0 | 0.00 | 0.00 | 0.00 | 71 | |
| 20260506193011 | 55 | 128 | 11.0 | 11.0 | 0.00 | 0.00 | 0.00 | 68 | |
| 20260506192510 | 57 | 135 | 11.0 | 11.0 | 0.00 | 0.00 | 0.00 | 63 | |
| 20260506192011 | 57 | 122 | 7.0 | 7.0 | 0.00 | 0.00 | 0.00 | 61 | |
| 20260506191510 | 59 | 72 | 7.0 | 7.0 | 0.00 | 0.00 | 0.00 | 60 | |
| 20260506191010 | 59 | 44 | 4.0 | 7.0 | 0.00 | 0.00 | 0.00 | 61 | |
| 20260506190510 | 59 | 27 | 7.0 | 9.0 | 0.00 | 0.00 | 0.00 | 62 | |
| 20260506190011 | 57 | 22 | 9.0 | 9.0 | 0.00 | 0.00 | 0.00 | 65 | |
| 20260506185515 | 57 | 26 | 7.0 | 7.0 | 0.00 | 0.00 | 0.00 | 65 | |
| 20260506185011 | 57 | 1 | 7.0 | 7.0 | 0.00 | 0.00 | 0.00 | 65 | |
| 20260506184510 | 57 | 1 | 9.0 | 9.0 | 0.00 | 0.00 | 0.00 | 64 | |
| 20260506184011 | 57 | 7 | 11.0 | 11.0 | 0.00 | 0.00 | 0.00 | 65 | |
| 20260506183510 | 57 | 25 | 11.0 | 13.0 | 0.00 | 0.00 | 0.00 | 65 | |
| 20260506183011 | 57 | 63 | 7.0 | 7.0 | 0.00 | 0.00 | 0.00 | 66 | |
| 20260506182510 | 57 | 190 | 4.0 | 4.0 | 0.00 | 0.00 | 0.00 | 66 | |
| 20260506182012 | 57 | 197 | 13.0 | 16.0 | 0.00 | 0.00 | 0.00 | 67 | |
| 20260506181510 | 55 | 189 | 16.0 | 20.0 | 0.00 | 0.00 | 0.00 | 66 | |
| 20260506181009 | 59 | 207 | 11.0 | 16.0 | 0.00 | 0.00 | 0.00 | 62 | |
| 20260506180510 | 59 | 255 | 9.0 | 11.0 | 0.00 | 0.00 | 0.00 | 62 | |
| 20260506180010 | 59 | 277 | 7.0 | 9.0 | 0.00 | 0.00 | 0.00 | 62 | |
| 20260506175511 | 59 | 302 | 9.0 | 9.0 | 0.00 | 0.00 | 0.00 | 62 | |
| 20260506175011 | 59 | 290 | 11.0 | 13.0 | 0.00 | 0.00 | 0.00 | 62 | |
| 20260506174517 | 59 | 296 | 9.0 | 9.0 | 0.00 | 0.00 | 0.00 | 61 | |
| 20260506174010 | 59 | 291 | 9.0 | 11.0 | 0.00 | 0.00 | 0.00 | 60 | |
| 20260506173510 | 61 | 297 | 7.0 | 9.0 | 0.00 | 0.00 | 0.00 | 57 | |
| 20260506173012 | 61 | 299 | 7.0 | 7.0 | 0.00 | 0.00 | 0.00 | 57 | |
| 20260506171012 | 61 | 317 | 4.0 | 4.0 | 0.00 | 0.00 | 0.00 | 56 | |
| 20260506165011 | 61 | 317 | 2.0 | 2.0 | 0.00 | 0.00 | 0.00 | 56 | |
| 20260506164510 | 61 | 317 | 2.0 | 2.0 | 0.00 | 0.00 | 0.00 | 55 | |
| 20260506163510 | 61 | 317 | 0.0 | 0.0 | 0.00 | 0.00 | 0.00 | 55 | |
| 20260506162509 | 61 | 317 | 0.0 | 2.0 | 0.00 | 0.00 | 0.00 | 55 | |
| 20260506162017 | 63 | 317 | 0.0 | 2.0 | 0.00 | 0.00 | 0.00 | 54 | |
| 20260506161511 | 63 | 317 | 0.0 | 0.0 | 0.00 | 0.00 | 0.00 | 54 | |
| 20260506161009 | 63 | 317 | 0.0 | 2.0 | 0.00 | 0.00 | 0.00 | 54 | |
| 20260506160510 | 63 | 317 | 2.0 | 2.0 | 0.00 | 0.00 | 0.00 | 53 | |
| 20260506160011 | 64 | 317 | 0.0 | 2.0 | 0.00 | 0.00 | 0.00 | 53 | |
| 20260506155511 | 64 | 317 | 2.0 | 2.0 | 0.00 | 0.00 | 0.00 | 53 | |
| 20260506154510 | 63 | 317 | 2.0 | 2.0 | 0.00 | 0.00 | 0.00 | 52 | |
| 20260506153518 | 64 | 296 | 0.0 | 2.0 | 0.00 | 0.00 | 0.00 | 52 | |
| 20260506153010 | 66 | 296 | 0.0 | 2.0 | 0.00 | 0.00 | 0.00 | 51 | |
| 20260506152510 | 66 | 298 | 0.0 | 0.0 | 0.00 | 0.00 | 0.00 | 52 | |
| 20260506152011 | 64 | 298 | 2.0 | 2.0 | 0.00 | 0.00 | 0.00 | 52 | |
| 20260506151511 | 64 | 298 | 2.0 | 4.0 | 0.00 | 0.00 | 0.00 | 52 | |
| 20260506151010 | 66 | 305 | 2.0 | 2.0 | 0.00 | 0.00 | 0.00 | 51 | |
| 20260506150511 | 66 | 277 | 0.0 | 2.0 | 0.00 | 0.00 | 0.00 | 51 | |
| 20260506150010 | 66 | 271 | 2.0 | 2.0 | 0.00 | 0.00 | 0.00 | 50 | |
| 20260506145511 | 66 | 184 | 2.0 | 2.0 | 0.00 | 0.00 | 0.00 | 50 | |
| 20260506145010 | 66 | 214 | 2.0 | 2.0 | 0.00 | 0.00 | 0.00 | 49 | |
| 20260506144511 | 66 | 187 | 0.0 | 2.0 | 0.00 | 0.00 | 0.00 | 49 | |
| 20260506144018 | 70 | 167 | 2.0 | 4.0 | 0.00 | 0.00 | 0.00 | 49 | |
| 20260506143511 | 70 | 12 | 2.0 | 9.0 | 0.00 | 0.00 | 0.00 | 50 | |
| 20260506143011 | 68 | 180 | 0.0 | 0.0 | 0.00 | 0.00 | 0.00 | 51 | |
| 20260506142511 | 68 | 19 | 0.0 | 2.0 | 0.00 | 0.00 | 0.00 | 53 | |
| 20260506142012 | 64 | 358 | 2.0 | 4.0 | 0.00 | 0.00 | 0.00 | 53 | |
| 20260506141510 | 64 | 316 | 0.0 | 2.0 | 0.00 | 0.00 | 0.00 | 53 | |
| 20260506141009 | 64 | 296 | 2.0 | 2.0 | 0.00 | 0.00 | 0.00 | 53 | |
| 20260506140511 | 64 | 241 | 0.0 | 2.0 | 0.00 | 0.00 | 0.00 | 53 | |
| 20260506140011 | 64 | 144 | 0.0 | 4.0 | 0.00 | 0.00 | 0.00 | 53 | |
| 20260506135511 | 64 | 124 | 2.0 | 4.0 | 0.00 | 0.00 | 0.00 | 52 | |
| 20260506135011 | 63 | 131 | 2.0 | 2.0 | 0.00 | 0.00 | 0.00 | 54 | |
| 20260506133511 | 64 | 128 | 4.0 | 4.0 | 0.00 | 0.00 | 0.00 | 53 | |
| 20260506133010 | 64 | 131 | 4.0 | 4.0 | 0.00 | 0.00 | 0.00 | 53 | |
| 20260506132510 | 66 | 134 | 0.0 | 4.0 | 0.00 | 0.00 | 0.00 | 53 | |
| 20260506132012 | 66 | 300 | 0.0 | 2.0 | 0.00 | 0.00 | 0.00 | 54 | |
| 20260506131510 | 66 | 148 | 2.0 | 4.0 | 0.00 | 0.00 | 0.00 | 52 | |
| 20260506131010 | 68 | 225 | 4.0 | 4.0 | 0.00 | 0.00 | 0.00 | 55 | |
| 20260506130517 | 66 | 203 | 4.0 | 7.0 | 0.00 | 0.00 | 0.00 | 56 | |
| 20260506130011 | 64 | 255 | 2.0 | 4.0 | 0.00 | 0.00 | 0.00 | 57 | |
| 20260506125511 | 63 | 270 | 7.0 | 9.0 | 0.00 | 0.00 | 0.00 | 58 | |
| 20260506125010 | 63 | 272 | 7.0 | 11.0 | 0.00 | 0.00 | 0.00 | 58 | |
| 20260506124511 | 63 | 252 | 11.0 | 13.0 | 0.00 | 0.00 | 0.00 | 58 | |
| 20260506124011 | 61 | 272 | 9.0 | 11.0 | 0.00 | 0.00 | 0.00 | 59 | |
| 20260506123511 | 63 | 290 | 9.0 | 13.0 | 0.00 | 0.00 | 0.00 | 60 | |
| 20260506123010 | 63 | 279 | 16.0 | 18.0 | 0.00 | 0.00 | 0.00 | 59 | |
| 20260506122510 | 63 | 305 | 4.0 | 7.0 | 0.00 | 0.00 | 0.00 | 61 | |
| 20260506122012 | 61 | 287 | 13.0 | 16.0 | 0.00 | 0.00 | 0.00 | 59 | |
| 20260506121510 | 63 | 274 | 11.0 | 13.0 | 0.00 | 0.00 | 0.00 | 60 | |
| 20260506121010 | 63 | 285 | 7.0 | 9.0 | 0.00 | 0.00 | 0.00 | 60 | |
| 20260506120511 | 61 | 238 | 9.0 | 11.0 | 0.00 | 0.00 | 0.00 | 61 | |
| 20260506120010 | 61 | 267 | 11.0 | 13.0 | 0.00 | 0.00 | 0.00 | 60 | |
| 20260506115510 | 61 | 273 | 13.0 | 16.0 | 0.00 | 0.00 | 0.00 | 60 | |
| 20260506115011 | 61 | 280 | 11.0 | 11.0 | 0.00 | 0.00 | 0.00 | 61 | |
| 20260506114510 | 61 | 264 | 11.0 | 13.0 | 0.00 | 0.00 | 0.00 | 61 | |
| 20260506114009 | 61 | 257 | 11.0 | 13.0 | 0.00 | 0.00 | 0.00 | 61 | |
| 20260506113510 | 61 | 237 | 11.0 | 13.0 | 0.00 | 0.00 | 0.00 | 61 | |
| 20260506113011 | 61 | 265 | 7.0 | 9.0 | 0.00 | 0.00 | 0.00 | 62 | |
| 20260506112510 | 59 | 259 | 16.0 | 20.0 | 0.00 | 0.00 | 0.00 | 61 | |
| 20260506112013 | 61 | 249 | 11.0 | 13.0 | 0.00 | 0.00 | 0.00 | 62 | |
| 20260506111511 | 61 | 242 | 13.0 | 16.0 | 0.00 | 0.00 | 0.00 | 62 | |
| 20260506111011 | 61 | 270 | 20.0 | 22.0 | 0.00 | 0.00 | 0.00 | 62 | |
| 20260506110510 | 59 | 269 | 16.0 | 20.0 | 0.00 | 0.00 | 0.00 | 62 | |
| 20260506110010 | 59 | 237 | 16.0 | 18.0 | 0.00 | 0.00 | 0.00 | 63 | |
| 20260506105511 | 59 | 241 | 13.0 | 16.0 | 0.00 | 0.00 | 0.00 | 63 | |
| 20260506105011 | 61 | 230 | 11.0 | 20.0 | 0.00 | 0.00 | 0.00 | 63 | |
| 20260506104512 | 59 | 249 | 16.0 | 18.0 | 0.00 | 0.00 | 0.00 | 63 | |
| 20260506104010 | 59 | 233 | 13.0 | 16.0 | 0.00 | 0.00 | 0.00 | 64 | |
| 20260506103510 | 59 | 236 | 16.0 | 20.0 | 0.00 | 0.00 | 0.00 | 64 | |
| 20260506103011 | 59 | 239 | 18.0 | 20.0 | 0.00 | 0.00 | 0.00 | 65 | |
| 20260506102510 | 59 | 247 | 18.0 | 20.0 | 0.00 | 0.00 | 0.00 | 65 | |
| 20260506102010 | 59 | 239 | 13.0 | 16.0 | 0.00 | 0.00 | 0.00 | 65 | |
| 20260506101510 | 59 | 243 | 20.0 | 20.0 | 0.00 | 0.00 | 0.00 | 65 | |
| 20260506101010 | 57 | 264 | 18.0 | 22.0 | 0.00 | 0.00 | 0.00 | 65 | |
| 20260506100510 | 59 | 256 | 18.0 | 20.0 | 0.00 | 0.00 | 0.00 | 65 |